| time (UTC) | temp C | wind direction | speed KPH | gust KPH | rain 1hr cm | rain 24hr cm | rain mn cm | humidity % | barometer mb |
| 20260502210259 | 10 | 236 | 8.0 | 12.9 | 0.00 | 0.38 | 0.38 | 81 | 1011.0 |
| 20260502205756 | 10 | 277 | 8.0 | 9.7 | 0.00 | 0.38 | 0.38 | 85 | 1011.1 |
| 20260502205252 | 10 | 259 | 6.4 | 11.3 | 0.00 | 0.38 | 0.38 | 85 | 1011.4 |
| 20260502204749 | 10 | 314 | 4.8 | 6.4 | 0.00 | 0.38 | 0.38 | 89 | 1011.1 |
| 20260502204246 | 10 | 297 | 6.4 | 11.3 | 0.00 | 0.38 | 0.38 | 89 | 1011.1 |
| 20260502203744 | 10 | 316 | 0.0 | 9.7 | 0.00 | 0.38 | 0.38 | 91 | 1011.1 |
| 20260502203242 | 9 | 290 | 3.2 | 11.3 | 0.00 | 0.38 | 0.38 | 92 | 1011.4 |
| 20260502202736 | 9 | 315 | 0.0 | 11.3 | 0.00 | 0.38 | 0.38 | 94 | 1011.4 |
| 20260502202234 | 9 | 357 | 8.0 | 11.3 | 0.00 | 0.38 | 0.38 | 95 | 1011.2 |
| 20260502201732 | 8 | 310 | 9.7 | 11.3 | 0.00 | 0.38 | 0.38 | 95 | 1011.5 |
| 20260502201228 | 8 | 259 | 0.0 | 17.7 | 0.00 | 0.38 | 0.38 | 96 | 1011.4 |
| 20260502200724 | 8 | 351 | 6.4 | 12.9 | 0.00 | 0.38 | 0.38 | 96 | 1011.6 |
| 20260502200220 | 8 | 238 | 3.2 | 8.0 | 0.00 | 0.38 | 0.38 | 96 | 1011.6 |
| 20260502195719 | 8 | 289 | 9.7 | 9.7 | 0.00 | 0.38 | 0.38 | 96 | 1011.7 |
| 20260502195215 | 8 | 89 | 0.0 | 8.0 | 0.05 | 0.38 | 0.38 | 96 | 1011.6 |
| 20260502194711 | 8 | 326 | 0.0 | 8.0 | 0.05 | 0.38 | 0.38 | 96 | 1011.9 |
| 20260502194209 | 8 | 312 | 4.8 | 8.0 | 0.00 | 0.38 | 0.38 | 96 | 1011.4 |
| 20260502193704 | 8 | 325 | 4.8 | 11.3 | 0.00 | 0.38 | 0.38 | 96 | 1011.6 |
| 20260502193202 | 7 | 309 | 4.8 | 8.0 | 0.05 | 0.38 | 0.38 | 96 | 1012.0 |
| 20260502192657 | 7 | 326 | 3.2 | 6.4 | 0.18 | 0.38 | 0.38 | 96 | 1012.1 |
| 20260502192155 | 7 | 306 | 0.0 | 4.8 | 0.23 | 0.36 | 0.36 | 96 | 1012.0 |
| 20260502191651 | 8 | 293 | 3.2 | 6.4 | 0.18 | 0.33 | 0.33 | 95 | 1012.2 |
| 20260502191149 | 7 | 275 | 6.4 | 6.4 | 0.36 | 0.33 | 0.33 | 95 | 1012.2 |
| 20260502190646 | 7 | 336 | 3.2 | 6.4 | 0.43 | 0.30 | 0.30 | 94 | 1012.1 |
| 20260502190144 | 8 | 330 | 0.0 | 4.8 | 0.66 | 0.25 | 0.25 | 93 | 1012.1 |
| 20260502185638 | 8 | 348 | 3.2 | 6.4 | 0.71 | 0.23 | 0.23 | 91 | 1012.0 |
| 20260502185135 | 8 | 306 | 0.0 | 8.0 | 0.23 | 0.15 | 0.15 | 89 | 1012.0 |
| 20260502184631 | 8 | 6 | 0.0 | 9.7 | 0.00 | 0.10 | 0.10 | 87 | 1011.5 |
| 20260502184127 | 9 | 312 | 9.7 | 16.1 | 0.00 | 0.10 | 0.10 | 85 | 1011.7 |
| 20260502183624 | 10 | 323 | 12.9 | 17.7 | 0.00 | 0.10 | 0.10 | 84 | 1012.0 |
| 20260502183120 | 10 | 319 | 8.0 | 17.7 | 0.00 | 0.10 | 0.10 | 82 | 1011.7 |
| 20260502182615 | 11 | 3 | 8.0 | 20.9 | 0.00 | 0.10 | 0.10 | 77 | 1011.7 |
| 20260502182111 | 12 | 219 | 4.8 | 12.9 | 0.00 | 0.10 | 0.10 | 73 | 1011.6 |
| 20260502181609 | 12 | 176 | 4.8 | 8.0 | 0.00 | 0.10 | 0.10 | 73 | 1011.6 |
| 20260502181108 | 12 | 274 | 11.3 | 12.9 | 0.00 | 0.10 | 0.10 | 73 | 1011.9 |
| 20260502180604 | 11 | 246 | 6.4 | 9.7 | 0.00 | 0.10 | 0.10 | 74 | 1011.9 |
| 20260502164008 | 10 | 138 | 8.0 | 22.5 | 0.00 | 0.10 | 0.10 | 82 | 1012.4 |
| 20260502163503 | 10 | 176 | 3.2 | 11.3 | 0.00 | 0.10 | 0.10 | 82 | 1012.1 |
| 20260502163000 | 10 | 115 | 4.8 | 12.9 | 0.00 | 0.10 | 0.10 | 84 | 1012.5 |
| 20260502162457 | 10 | 93 | 4.8 | 11.3 | 0.00 | 0.10 | 0.10 | 85 | 1012.5 |
| 20260502161954 | 10 | 106 | 6.4 | 14.5 | 0.00 | 0.10 | 0.10 | 86 | 1012.7 |
| 20260502161450 | 10 | 76 | 0.0 | 8.0 | 0.00 | 0.10 | 0.10 | 88 | 1012.8 |
| 20260502160949 | 9 | 123 | 4.8 | 14.5 | 0.00 | 0.10 | 0.10 | 88 | 1012.5 |
| 20260502160446 | 9 | 112 | 11.3 | 14.5 | 0.00 | 0.10 | 0.10 | 88 | 1012.8 |
| 20260502151930 | 9 | 135 | 0.0 | 16.1 | 0.00 | 0.10 | 0.10 | 88 | 1013.1 |
| 20260502151426 | 9 | 128 | 6.4 | 16.1 | 0.00 | 0.10 | 0.10 | 88 | 1013.2 |
| 20260502150924 | 9 | 192 | 4.8 | 8.0 | 0.00 | 0.10 | 0.10 | 88 | 1013.1 |
| 20260502150420 | 8 | 97 | 4.8 | 12.9 | 0.00 | 0.10 | 0.10 | 87 | 1013.2 |
| 20260502130306 | 8 | 112 | 4.8 | 8.0 | 0.00 | 0.10 | 0.10 | 97 | 1013.3 |
| 20260502123752 | 7 | 149 | 4.8 | 9.7 | 0.00 | 0.10 | 0.10 | 97 | 1013.9 |
| 20260502123248 | 7 | 112 | 6.4 | 11.3 | 0.00 | 0.10 | 0.10 | 97 | 1013.9 |
| 20260502122745 | 7 | 102 | 4.8 | 8.0 | 0.00 | 0.10 | 0.10 | 97 | 1014.1 |
| 20260502122241 | 7 | 119 | 6.4 | 8.0 | 0.00 | 0.10 | 0.10 | 97 | 1014.1 |
| 20260502121740 | 7 | 110 | 6.4 | 8.0 | 0.05 | 0.10 | 0.10 | 97 | 1014.1 |
| 20260502121237 | 7 | 93 | 3.2 | 4.8 | 0.05 | 0.10 | 0.10 | 97 | 1013.7 |
| 20260502120733 | 7 | 225 | 0.0 | 3.2 | 0.00 | 0.10 | 0.10 | 97 | 1013.9 |
| 20260502120230 | 7 | 269 | 0.0 | 4.8 | 0.05 | 0.10 | 0.10 | 97 | 1014.0 |
| 20260502115728 | 7 | 229 | 0.0 | 4.8 | 0.13 | 0.10 | 0.10 | 97 | 1014.2 |
| 20260502115225 | 7 | 267 | 4.8 | 8.0 | 0.18 | 0.10 | 0.10 | 97 | 1014.0 |
| 20260502114720 | 7 | 308 | 0.0 | 4.8 | 0.05 | 0.08 | 0.08 | 97 | 1013.7 |
| 20260502114218 | 7 | 318 | 4.8 | 8.0 | 0.00 | 0.05 | 0.05 | 97 | 1013.8 |
| 20260502113715 | 7 | 309 | 4.8 | 8.0 | 0.00 | 0.05 | 0.05 | 97 | 1013.8 |
| 20260502113213 | 7 | 305 | 4.8 | 8.0 | 0.00 | 0.05 | 0.05 | 96 | 1013.8 |
| 20260502112711 | 7 | 297 | 3.2 | 6.4 | 0.00 | 0.05 | 0.05 | 96 | 1013.7 |
| 20260502112208 | 7 | 262 | 3.2 | 6.4 | 0.00 | 0.05 | 0.05 | 96 | 1013.6 |
| 20260502111705 | 7 | 286 | 4.8 | 4.8 | 0.00 | 0.05 | 0.05 | 96 | 1013.5 |
| 20260502111203 | 7 | 275 | 4.8 | 4.8 | 0.00 | 0.05 | 0.05 | 96 | 1013.2 |
| 20260502110700 | 7 | 76 | 0.0 | 4.8 | 0.00 | 0.05 | 0.05 | 96 | 1013.1 |
| 20260502110157 | 6 | 71 | 3.2 | 6.4 | 0.00 | 0.05 | 0.05 | 96 | 1013.2 |
| 20260502105655 | 6 | 41 | 6.4 | 8.0 | 0.05 | 0.05 | 0.05 | 96 | 1013.0 |
| 20260502105152 | 6 | 72 | 6.4 | 8.0 | 0.00 | 0.05 | 0.05 | 95 | 1013.3 |
| 20260502104649 | 6 | 147 | 0.0 | 0.0 | 0.00 | 0.05 | 0.05 | 95 | 1013.6 |
| 20260502104147 | 6 | 175 | 0.0 | 0.0 | 0.05 | 0.05 | 0.05 | 95 | 1013.4 |
| 20260502103644 | 6 | 301 | 0.0 | 4.8 | 0.05 | 0.05 | 0.05 | 95 | 1013.4 |
| 20260502103142 | 6 | 249 | 0.0 | 6.4 | 0.00 | 0.05 | 0.05 | 95 | 1013.0 |
| 20260502102638 | 6 | 299 | 0.0 | 4.8 | 0.00 | 0.05 | 0.05 | 95 | 1012.9 |
| 20260502102135 | 6 | 185 | 0.0 | 4.8 | 0.05 | 0.05 | 0.05 | 95 | 1013.1 |
| 20260502101633 | 6 | 129 | 4.8 | 4.8 | 0.05 | 0.05 | 0.05 | 94 | 1012.9 |
| 20260502101131 | 6 | 124 | 0.0 | 3.2 | 0.00 | 0.03 | 0.03 | 94 | 1012.7 |
| 20260502100629 | 6 | 155 | 3.2 | 6.4 | 0.00 | 0.03 | 0.03 | 94 | 1012.8 |
| 20260502100127 | 6 | 193 | 0.0 | 4.8 | 0.05 | 0.03 | 0.03 | 94 | 1012.8 |
| 20260502091101 | 6 | 105 | 0.0 | 6.4 | 0.00 | 0.03 | 0.03 | 94 | 1012.3 |
| 20260502090558 | 6 | 105 | 4.8 | 6.4 | 0.00 | 0.03 | 0.03 | 94 | 1012.4 |
| 20260502071452 | 7 | 82 | 4.8 | 6.4 | 0.00 | 0.00 | 0.00 | 84 | 1012.8 |
| 20260502070950 | 7 | 161 | 3.2 | 8.0 | 0.00 | 0.00 | 0.00 | 83 | 1012.6 |
| 20260502070448 | 7 | 93 | 8.0 | 9.7 | 0.00 | 0.00 | 0.00 | 82 | 1012.5 |
| 20260502065946 | 7 | 102 | 8.0 | 9.7 | 0.00 | 0.00 | 0.00 | 82 | 1012.4 |
| 20260502065445 | 8 | 87 | 6.4 | 8.0 | 0.00 | 0.00 | 0.00 | 82 | 1012.5 |
| 20260502064942 | 8 | 144 | 8.0 | 9.7 | 0.00 | 0.00 | 0.00 | 80 | 1012.3 |
| 20260502064440 | 8 | 55 | 0.0 | 8.0 | 0.00 | 0.00 | 0.00 | 79 | 1012.6 |
| 20260502063937 | 8 | 63 | 3.2 | 8.0 | 0.00 | 0.00 | 0.00 | 78 | 1012.6 |
| 20260502063435 | 8 | 100 | 4.8 | 8.0 | 0.00 | 0.00 | 0.00 | 78 | 1012.6 |
| 20260502062932 | 8 | 83 | 9.7 | 9.7 | 0.00 | 0.00 | 0.00 | 78 | 1012.7 |
| 20260502062429 | 8 | 134 | 6.4 | 8.0 | 0.00 | 0.00 | 0.00 | 78 | 1012.8 |
| 20260502061928 | 8 | 100 | 6.4 | 8.0 | 0.00 | 0.00 | 0.00 | 79 | 1013.0 |
| 20260502061425 | 8 | 113 | 0.0 | 6.4 | 0.00 | 0.00 | 0.00 | 79 | 1012.8 |
| 20260502060921 | 8 | 233 | 0.0 | 8.0 | 0.00 | 0.00 | 0.00 | 81 | 1013.0 |
| 20260502060416 | 8 | 119 | 0.0 | 4.8 | 0.00 | 0.00 | 0.00 | 79 | 1013.1 |
| 20260502055914 | 8 | 122 | 6.4 | 8.0 | 0.00 | 0.00 | 0.00 | 78 | 1012.6 |
| 20260502055411 | 8 | 60 | 6.4 | 8.0 | 0.00 | 0.00 | 0.00 | 76 | 1012.5 |
| 20260502054906 | 8 | 57 | 0.0 | 4.8 | 0.00 | 0.00 | 0.00 | 74 | 1012.9 |
| 20260502054403 | 8 | 219 | 3.2 | 8.0 | 0.00 | 0.00 | 0.00 | 72 | 1012.9 |
| 20260502053900 | 8 | 125 | 0.0 | 4.8 | 0.00 | 0.00 | 0.00 | 72 | 1013.0 |
| 20260502053357 | 8 | 140 | 8.0 | 9.7 | 0.00 | 0.00 | 0.00 | 72 | 1012.7 |
| 20260502052854 | 8 | 163 | 0.0 | 6.4 | 0.00 | 0.00 | 0.00 | 72 | 1013.1 |
| 20260502052352 | 8 | 122 | 4.8 | 8.0 | 0.00 | 0.00 | 0.00 | 72 | 1012.9 |
| 20260502051850 | 8 | 131 | 0.0 | 8.0 | 0.00 | 0.00 | 0.00 | 71 | 1012.9 |
| 20260502051349 | 8 | 129 | 6.4 | 6.4 | 0.00 | 0.00 | 0.00 | 71 | 1013.1 |
| 20260502050845 | 8 | 102 | 4.8 | 8.0 | 0.00 | 0.00 | 0.00 | 70 | 1013.1 |
| 20260502050341 | 8 | 137 | 4.8 | 6.4 | 0.00 | 0.00 | 0.00 | 70 | 1013.1 |
| 20260502045838 | 8 | 96 | 4.8 | 6.4 | 0.00 | 0.00 | 0.00 | 69 | 1012.9 |
| 20260502045335 | 8 | 116 | 6.4 | 8.0 | 0.00 | 0.00 | 0.00 | 69 | 1013.0 |
| 20260502044833 | 9 | 129 | 0.0 | 4.8 | 0.00 | 0.00 | 0.00 | 68 | 1013.0 |
| 20260502044328 | 9 | 150 | 4.8 | 6.4 | 0.00 | 0.00 | 0.00 | 68 | 1013.1 |
| 20260502043825 | 9 | 160 | 3.2 | 8.0 | 0.00 | 0.00 | 0.00 | 67 | 1013.0 |
| 20260502043323 | 9 | 93 | 4.8 | 11.3 | 0.00 | 0.00 | 0.00 | 67 | 1012.8 |
| 20260502042822 | 9 | 162 | 0.0 | 12.9 | 0.00 | 0.00 | 0.00 | 67 | 1012.9 |
| 20260502042320 | 9 | 144 | 4.8 | 11.3 | 0.00 | 0.00 | 0.00 | 67 | 1012.8 |
| 20260502041817 | 9 | 127 | 4.8 | 8.0 | 0.00 | 0.00 | 0.00 | 66 | 1012.9 |
| 20260502041314 | 9 | 154 | 3.2 | 4.8 | 0.00 | 0.00 | 0.00 | 65 | 1012.9 |
| 20260502040812 | 9 | 121 | 4.8 | 4.8 | 0.00 | 0.00 | 0.00 | 65 | 1013.1 |
| 20260502040308 | 10 | 109 | 4.8 | 8.0 | 0.00 | 0.00 | 0.00 | 64 | 1013.1 |
| 20260502035804 | 10 | 129 | 6.4 | 8.0 | 0.00 | 0.00 | 0.00 | 63 | 1012.8 |
| 20260502035301 | 10 | 133 | 4.8 | 6.4 | 0.00 | 0.00 | 0.00 | 62 | 1013.2 |
| 20260502034758 | 10 | 147 | 0.0 | 4.8 | 0.00 | 0.00 | 0.00 | 62 | 1013.2 |
| 20260502034257 | 10 | 120 | 4.8 | 4.8 | 0.00 | 0.00 | 0.00 | 61 | 1013.3 |
| 20260502033755 | 10 | 105 | 3.2 | 4.8 | 0.00 | 0.00 | 0.00 | 61 | 1013.1 |
| 20260502033252 | 10 | 134 | 0.0 | 6.4 | 0.00 | 0.00 | 0.00 | 60 | 1013.0 |
| 20260502032748 | 10 | 101 | 3.2 | 8.0 | 0.00 | 0.00 | 0.00 | 59 | 1013.1 |
| 20260502032245 | 10 | 120 | 4.8 | 6.4 | 0.00 | 0.00 | 0.00 | 58 | 1013.1 |
| 20260502031743 | 10 | 141 | 6.4 | 8.0 | 0.00 | 0.00 | 0.00 | 57 | 1013.1 |
| 20260502031240 | 10 | 161 | 0.0 | 4.8 | 0.00 | 0.00 | 0.00 | 57 | 1013.3 |
| 20260502030739 | 10 | 269 | 0.0 | 0.0 | 0.00 | 0.00 | 0.00 | 56 | 1013.2 |
| 20260502030237 | 10 | 240 | 0.0 | 4.8 | 0.00 | 0.00 | 0.00 | 55 | 1013.1 |
| 20260502025734 | 10 | 267 | 0.0 | 8.0 | 0.00 | 0.00 | 0.00 | 54 | 1012.9 |
| 20260502025232 | 11 | 210 | 0.0 | 6.4 | 0.00 | 0.00 | 0.00 | 54 | 1013.0 |
| 20260502024729 | 11 | 219 | 0.0 | 9.7 | 0.00 | 0.00 | 0.00 | 53 | 1012.9 |
| 20260502024227 | 11 | 292 | 0.0 | 8.0 | 0.00 | 0.00 | 0.00 | 52 | 1013.1 |
| 20260502023725 | 11 | 240 | 4.8 | 4.8 | 0.00 | 0.00 | 0.00 | 53 | 1013.0 |
| 20260502023222 | 11 | 222 | 4.8 | 8.0 | 0.00 | 0.00 | 0.00 | 53 | 1013.0 |
| 20260502022720 | 11 | 269 | 0.0 | 8.0 | 0.00 | 0.00 | 0.00 | 52 | 1013.1 |
| 20260502022216 | 11 | 44 | 0.0 | 8.0 | 0.00 | 0.00 | 0.00 | 52 | 1013.2 |
| 20260502021713 | 11 | 228 | 6.4 | 6.4 | 0.00 | 0.00 | 0.00 | 52 | 1013.0 |
| 20260502021210 | 11 | 230 | 3.2 | 9.7 | 0.00 | 0.00 | 0.00 | 52 | 1013.1 |
| 20260502020707 | 10 | 223 | 4.8 | 9.7 | 0.00 | 0.00 | 0.00 | 53 | 1013.0 |
| 20260502020204 | 10 | 223 | 0.0 | 8.0 | 0.00 | 0.00 | 0.00 | 53 | 1013.1 |
| 20260502015702 | 10 | 242 | 8.0 | 12.9 | 0.00 | 0.00 | 0.00 | 52 | 1013.1 |
| 20260502015158 | 10 | 306 | 6.4 | 9.7 | 0.00 | 0.00 | 0.00 | 55 | 1013.1 |
| 20260502014656 | 10 | 289 | 6.4 | 8.0 | 0.00 | 0.00 | 0.00 | 55 | 1012.9 |
| 20260502014153 | 10 | 283 | 0.0 | 4.8 | 0.00 | 0.00 | 0.00 | 58 | 1013.0 |
| 20260502013649 | 10 | 135 | 0.0 | 0.0 | 0.00 | 0.00 | 0.00 | 51 | 1012.7 |
| 20260502013144 | 10 | 135 | 0.0 | 0.0 | 0.00 | 0.00 | 0.00 | 51 | 1012.7 |
| 20260502012642 | 10 | 129 | 0.0 | 6.4 | 0.00 | 0.00 | 0.00 | 50 | 1012.6 |
| 20260502012140 | 10 | 120 | 4.8 | 6.4 | 0.00 | 0.00 | 0.00 | 49 | 1012.6 |
| 20260502011636 | 10 | 113 | 4.8 | 6.4 | 0.00 | 0.00 | 0.00 | 47 | 1012.6 |
| 20260502011132 | 10 | 113 | 0.0 | 0.0 | 0.00 | 0.00 | 0.00 | 47 | 1012.6 |
| 20260502010630 | 10 | 113 | 0.0 | 3.2 | 0.00 | 0.00 | 0.00 | 46 | 1012.3 |
| 20260502010126 | 10 | 125 | 0.0 | 4.8 | 0.00 | 0.00 | 0.00 | 46 | 1012.4 |
| 20260502005624 | 10 | 127 | 0.0 | 3.2 | 0.00 | 0.00 | 0.00 | 47 | 1012.5 |
| 20260502005121 | 10 | 89 | 0.0 | 0.0 | 0.00 | 0.00 | 0.00 | 47 | 1012.4 |
| 20260502004616 | 10 | 89 | 0.0 | 0.0 | 0.00 | 0.00 | 0.00 | 48 | 1012.2 |
| 20260502004114 | 10 | 89 | 0.0 | 0.0 | 0.00 | 0.00 | 0.00 | 45 | 1012.2 |
| 20260502003612 | 11 | 83 | 0.0 | 4.8 | 0.00 | 0.00 | 0.00 | 44 | 1012.2 |
| 20260502003108 | 11 | 76 | 0.0 | 4.8 | 0.00 | 0.00 | 0.00 | 44 | 1012.3 |
| 20260502002604 | 11 | 66 | 0.0 | 0.0 | 0.00 | 0.00 | 0.00 | 44 | 1012.2 |
| 20260502002102 | 11 | 103 | 0.0 | 0.0 | 0.00 | 0.00 | 0.00 | 42 | 1011.7 |
| 20260502001600 | 11 | 81 | 4.8 | 4.8 | 0.00 | 0.00 | 0.00 | 43 | 1011.9 |
| 20260502001056 | 11 | 87 | 4.8 | 4.8 | 0.00 | 0.00 | 0.00 | 43 | 1012.0 |
| 20260502000555 | 11 | 109 | 0.0 | 4.8 | 0.00 | 0.00 | 0.00 | 44 | 1011.9 |
| 20260502000052 | 11 | 82 | 3.2 | 4.8 | 0.00 | 0.00 | 0.00 | 43 | 1011.6 |
| 20260501235547 | 12 | 230 | 0.0 | 0.0 | 0.00 | 0.00 | 0.00 | 41 | 1011.6 |
| 20260501235043 | 12 | 301 | 0.0 | 3.2 | 0.00 | 0.00 | 0.00 | 40 | 1011.5 |
| 20260501234539 | 12 | 281 | 0.0 | 3.2 | 0.00 | 0.00 | 0.00 | 40 | 1011.5 |
| 20260501234038 | 13 | 298 | 0.0 | 4.8 | 0.00 | 0.00 | 0.00 | 40 | 1011.4 |
| 20260501233535 | 13 | 306 | 0.0 | 4.8 | 0.00 | 0.00 | 0.00 | 39 | 1011.3 |
| 20260501233032 | 13 | 305 | 0.0 | 0.0 | 0.00 | 0.00 | 0.00 | 39 | 1011.4 |
| 20260501232528 | 13 | 313 | 3.2 | 4.8 | 0.00 | 0.00 | 0.00 | 39 | 1011.2 |
| 20260501232025 | 13 | 299 | 8.0 | 8.0 | 0.00 | 0.00 | 0.00 | 41 | 1011.3 |
| 20260501231523 | 13 | 301 | 6.4 | 17.7 | 0.00 | 0.00 | 0.00 | 37 | 1011.1 |
| 20260501231021 | 13 | 289 | 8.0 | 9.7 | 0.00 | 0.00 | 0.00 | 36 | 1010.9 |
| 20260501230520 | 14 | 328 | 4.8 | 9.7 | 0.00 | 0.00 | 0.00 | 37 | 1010.9 |
| 20260501230017 | 14 | 306 | 8.0 | 11.3 | 0.00 | 0.00 | 0.00 | 37 | 1010.9 |
| 20260501225515 | 14 | 306 | 8.0 | 9.7 | 0.00 | 0.00 | 0.00 | 36 | 1010.8 |
| 20260501225010 | 14 | 327 | 6.4 | 14.5 | 0.00 | 0.00 | 0.00 | 37 | 1010.7 |
| 20260501224508 | 14 | 298 | 9.7 | 11.3 | 0.00 | 0.00 | 0.00 | 37 | 1010.5 |
| 20260501224005 | 14 | 287 | 6.4 | 14.5 | 0.00 | 0.00 | 0.00 | 35 | 1010.7 |
| 20260501223501 | 15 | 292 | 9.7 | 16.1 | 0.00 | 0.00 | 0.00 | 36 | 1010.7 |
| 20260501222957 | 15 | 293 | 9.7 | 20.9 | 0.00 | 0.00 | 0.00 | 35 | 1010.5 |
| 20260501222454 | 15 | 296 | 8.0 | 16.1 | 0.00 | 0.00 | 0.00 | 35 | 1010.6 |
| 20260501221950 | 15 | 315 | 12.9 | 17.7 | 0.00 | 0.00 | 0.00 | 34 | 1010.7 |
| 20260501221447 | 15 | 310 | 19.3 | 20.9 | 0.00 | 0.00 | 0.00 | 35 | 1010.6 |
| 20260501220946 | 15 | 236 | 8.0 | 17.7 | 0.00 | 0.00 | 0.00 | 37 | 1010.7 |
| 20260501220443 | 15 | 333 | 6.4 | 11.3 | 0.00 | 0.00 | 0.00 | 35 | 1010.9 |
| 20260501215938 | 15 | 306 | 16.1 | 20.9 | 0.00 | 0.00 | 0.00 | 34 | 1010.6 |
| 20260501215436 | 15 | 284 | 11.3 | 17.7 | 0.00 | 0.00 | 0.00 | 34 | 1010.7 |
| 20260501214931 | 15 | 310 | 12.9 | 12.9 | 0.00 | 0.00 | 0.00 | 36 | 1010.8 |
| 20260501214427 | 15 | 278 | 9.7 | 11.3 | 0.00 | 0.00 | 0.00 | 34 | 1010.5 |
| 20260501213922 | 15 | 325 | 9.7 | 11.3 | 0.00 | 0.00 | 0.00 | 35 | 1010.5 |
| 20260501213420 | 15 | 269 | 12.9 | 17.7 | 0.00 | 0.00 | 0.00 | 34 | 1010.6 |
| 20260501212915 | 15 | 299 | 11.3 | 19.3 | 0.00 | 0.00 | 0.00 | 35 | 1010.5 |
| 20260501212412 | 15 | 299 | 8.0 | 14.5 | 0.00 | 0.00 | 0.00 | 35 | 1010.6 |
| 20260501211909 | 15 | 304 | 14.5 | 17.7 | 0.00 | 0.00 | 0.00 | 35 | 1010.6 |
| 20260501211406 | 15 | 318 | 20.9 | 25.7 | 0.00 | 0.00 | 0.00 | 34 | 1010.4 |
| 20260501210904 | 15 | 308 | 17.7 | 19.3 | 0.00 | 0.00 | 0.00 | 34 | 1010.6 |